Data No, UTC Date,UTC Time,Latitude,Longitude,Course(deg),Temp(degC),Sal(psu),pH
685,9/7/2019,11:24,35-35.80N,139-47.10E,217,26.174,,8.47
686,9/7/2019,11:25,35-35.61N,139-47.02E,190,27.475,,8.39
687,9/7/2019,11:26,35-35.41N,139-47.06E,158,27.592,,8.33
688,9/7/2019,11:27,35-35.26N,139-47.22E,138,27.128,,8.42
689,9/7/2019,11:28,35-35.09N,139-47.40E,137,26.088,,8.56
690,9/7/2019,11:29,35-34.93N,139-47.58E,137,25.816,,8.58
691,9/7/2019,11:30,35-34.76N,139-47.77E,138,25.735,,8.5
692,9/7/2019,11:31,35-34.60N,139-47.97E,129,25.631,,8.38
693,9/7/2019,11:32,35-34.47N,139-48.20E,126,25.602,,8.29
694,9/7/2019,11:33,35-34.32N,139-48.42E,129,26.032,,8.23
695,9/7/2019,11:34,35-34.17N,139-48.63E,129,25.736,,8.18
696,9/7/2019,11:35,35-34.02N,139-48.86E,129,25.823,,8.18
697,9/7/2019,11:36,35-33.87N,139-49.08E,129,25.863,,8.18
698,9/7/2019,11:37,35-33.72N,139-49.30E,128,25.737,,8.16
699,9/7/2019,11:38,35-33.57N,139-49.55E,127,25.649,,8.14
700,9/7/2019,11:39,35-33.40N,139-49.81E,128,25.78,,8.1
701,9/7/2019,11:40,35-33.24N,139-50.06E,127,25.796,,8.07
702,9/7/2019,11:41,35-33.06N,139-50.35E,127,25.917,,8.06
703,9/7/2019,11:42,35-32.84N,139-50.58E,148,26.858,,8.08
704,9/7/2019,11:43,35-32.56N,139-50.67E,172,27.204,,8.11
705,9/7/2019,11:44,35-32.28N,139-50.62E,188,27.227,,8.21
706,9/7/2019,11:45,35-31.99N,139-50.57E,189,26.956,,8.38
707,9/7/2019,11:46,35-31.70N,139-50.53E,183,27.008,,8.44
708,9/7/2019,11:47,35-31.40N,139-50.55E,176,27.252,,8.4
709,9/7/2019,11:48,35-31.11N,139-50.57E,176,27.426,,8.37
710,9/7/2019,11:49,35-30.81N,139-50.59E,176,27.474,,8.36
711,9/7/2019,11:50,35-30.50N,139-50.62E,176,27.439,,8.37
712,9/7/2019,11:51,35-30.19N,139-50.64E,176,27.325,,8.39
713,9/7/2019,11:52,35-29.88N,139-50.65E,182,27.338,,8.39
714,9/7/2019,11:53,35-29.58N,139-50.58E,194,27.652,,8.37
715,9/7/2019,11:54,35-29.32N,139-50.39E,219,27.814,,8.36
716,9/7/2019,11:55,35-29.11N,139-50.12E,228,27.634,,8.39
717,9/7/2019,11:56,35-28.91N,139-49.84E,228,27.537,,8.45
718,9/7/2019,11:57,35-28.70N,139-49.55E,227,27.411,,8.5
719,9/7/2019,11:58,35-28.51N,139-49.26E,232,27.444,,8.49
720,9/7/2019,11:59,35-28.33N,139-48.96E,233,27.393,,8.48
721,9/7/2019,12:00,35-28.14N,139-48.66E,233,27.428,,8.45
722,9/7/2019,12:01,35-27.99N,139-48.33E,242,27.571,,8.45
723,9/7/2019,12:02,35-27.85N,139-47.99E,242,27.39,,8.45
724,9/7/2019,12:03,35-27.69N,139-47.67E,235,27.262,,8.46
725,9/7/2019,12:04,35-27.51N,139-47.37E,234,27.235,,8.46
726,9/7/2019,12:05,35-27.32N,139-47.06E,233,27.263,,8.44
727,9/7/2019,12:06,35-27.13N,139-46.75E,233,27.14,,8.41
728,9/7/2019,12:07,35-26.95N,139-46.45E,234,26.978,,8.41
729,9/7/2019,12:08,35-26.77N,139-46.13E,234,26.916,,8.4
730,9/7/2019,12:09,35-26.59N,139-45.82E,234,26.869,,8.39
731,9/7/2019,12:10,35-26.41N,139-45.50E,234,26.898,,8.37
732,9/7/2019,12:11,35-26.23N,139-45.20E,235,26.897,,8.35
733,9/7/2019,12:12,35-26.06N,139-44.89E,235,26.869,,8.34
734,9/7/2019,12:13,35-25.87N,139-44.57E,235,26.813,,8.35
735,9/7/2019,12:14,35-25.70N,139-44.25E,235,26.887,,8.35
736,9/7/2019,12:15,35-25.52N,139-43.94E,235,27.076,,8.36
737,9/7/2019,12:16,35-25.35N,139-43.63E,235,26.99,,8.36
738,9/7/2019,12:17,35-25.16N,139-43.34E,224,27.078,,8.4
739,9/7/2019,12:18,35-24.90N,139-43.16E,206,27.653,,8.42
740,9/7/2019,12:19,35-24.62N,139-43.00E,205,27.495,,8.44
741,9/7/2019,12:20,35-24.34N,139-42.84E,205,27.57,,8.49
742,9/7/2019,12:21,35-24.07N,139-42.68E,205,27.636,,8.51
743,9/7/2019,12:22,35-23.79N,139-42.51E,205,27.223,,8.52
744,9/7/2019,12:23,35-23.51N,139-42.37E,195,26.992,,8.54
745,9/7/2019,12:24,35-23.21N,139-42.36E,180,27.163,,8.53
746,9/7/2019,12:25,35-22.91N,139-42.35E,180,26.923,,8.5
747,9/7/2019,12:26,35-22.59N,139-42.35E,180,26.759,,8.49
748,9/7/2019,12:27,35-22.28N,139-42.35E,179,26.579,,8.47
749,9/7/2019,12:28,35-21.97N,139-42.35E,180,26.893,,8.44
750,9/7/2019,12:29,35-21.66N,139-42.36E,179,26.878,,8.4
751,9/7/2019,12:30,35-21.35N,139-42.35E,180,27.086,,8.39
752,9/7/2019,12:31,35-21.04N,139-42.35E,180,27.184,,8.4
753,9/7/2019,12:32,35-20.76N,139-42.35E,180,27.161,,8.42
754,9/7/2019,12:33,35-20.51N,139-42.35E,180,27.063,,8.45
755,9/7/2019,12:34,35-20.28N,139-42.34E,180,26.86,,8.46
756,9/7/2019,12:35,35-20.07N,139-42.35E,173,26.918,,8.46
757,9/7/2019,12:36,35-19.89N,139-42.45E,148,27.338,,8.44
758,9/7/2019,12:37,35-19.72N,139-42.60E,144,26.762,,8.43
759,9/7/2019,12:38,35-19.55N,139-42.74E,144,26.796,,8.45
760,9/7/2019,12:39,35-19.38N,139-42.89E,144,26.839,,8.45
761,9/7/2019,12:40,35-19.21N,139-43.04E,144,26.789,,8.43
762,9/7/2019,12:41,35-19.04N,139-43.18E,145,26.771,,8.41
763,9/7/2019,12:42,35-18.87N,139-43.33E,144,26.746,,8.41
764,9/7/2019,12:43,35-18.69N,139-43.48E,144,26.647,,8.4
765,9/7/2019,12:44,35-18.53N,139-43.63E,144,26.557,,8.39
766,9/7/2019,12:45,35-18.35N,139-43.78E,145,26.581,,8.37
767,9/7/2019,12:46,35-18.18N,139-43.93E,144,26.592,,8.37
768,9/7/2019,12:47,35-18.01N,139-44.07E,145,26.671,,8.37
769,9/7/2019,12:48,35-17.84N,139-44.22E,144,26.732,,8.37
770,9/7/2019,12:49,35-17.66N,139-44.37E,144,26.793,,8.38
771,9/7/2019,12:50,35-17.49N,139-44.51E,144,26.89,,8.39
772,9/7/2019,12:51,35-17.31N,139-44.67E,144,26.836,,8.39
773,9/7/2019,12:52,35-17.14N,139-44.81E,144,26.866,,8.4
774,9/7/2019,12:53,35-16.97N,139-44.96E,144,26.876,,8.39
775,9/7/2019,12:54,35-16.79N,139-45.12E,144,26.883,,8.39
776,9/7/2019,12:55,35-16.62N,139-45.27E,145,26.87,,8.39
777,9/7/2019,12:56,35-16.44N,139-45.42E,144,26.827,,8.39
778,9/7/2019,12:57,35-16.27N,139-45.57E,144,26.733,,8.38
779,9/7/2019,12:58,35-16.09N,139-45.72E,145,26.746,,8.39
780,9/7/2019,12:59,35-15.91N,139-45.87E,144,26.756,,8.38
781,9/7/2019,13:00,35-15.74N,139-46.02E,145,26.762,,8.37
782,9/7/2019,13:01,35-15.56N,139-46.17E,146,26.786,,8.37
783,9/7/2019,13:02,35-15.36N,139-46.26E,166,27.176,,8.36
784,9/7/2019,13:03,35-15.15N,139-46.27E,180,26.94,,8.37
785,9/7/2019,13:04,35-14.93N,139-46.27E,180,26.372,,8.39
786,9/7/2019,13:05,35-14.72N,139-46.27E,180,26.243,,8.41
787,9/7/2019,13:06,35-14.50N,139-46.26E,180,26.285,,8.38
788,9/7/2019,13:07,35-14.29N,139-46.26E,180,26.33,,8.35
789,9/7/2019,13:08,35-14.08N,139-46.26E,181,26.443,,8.33
790,9/7/2019,13:09,35-13.86N,139-46.25E,181,26.607,,8.33
791,9/7/2019,13:10,35-13.64N,139-46.25E,180,26.694,,8.33
792,9/7/2019,13:11,35-13.43N,139-46.25E,180,26.712,,8.34
793,9/7/2019,13:12,35-13.22N,139-46.24E,181,26.779,,8.34
794,9/7/2019,13:13,35-13.00N,139-46.24E,180,26.873,,8.33
795,9/7/2019,13:14,35-12.76N,139-46.22E,190,27.114,,8.32
796,9/7/2019,13:15,35-12.52N,139-46.12E,200,27.207,,8.31
797,9/7/2019,13:16,35-12.26N,139-46.00E,199,27.23,,8.3
798,9/7/2019,13:17,35-11.99N,139-45.89E,199,27.364,,8.33
799,9/7/2019,13:18,35-11.72N,139-45.77E,199,27.393,,8.33
800,9/7/2019,13:19,35-11.44N,139-45.65E,199,27.455,,8.3
801,9/7/2019,13:20,35-11.16N,139-45.53E,200,27.507,,8.28
802,9/7/2019,13:21,35-10.87N,139-45.40E,199,27.525,,8.27
803,9/7/2019,13:22,35-10.59N,139-45.28E,199,27.605,,8.26
804,9/7/2019,13:23,35-10.32N,139-45.16E,200,27.513,,8.25
805,9/7/2019,13:24,35-10.04N,139-45.03E,200,27.469,,8.23
806,9/7/2019,13:25,35-09.76N,139-44.91E,200,27.52,,8.22
807,9/7/2019,13:26,35-09.49N,139-44.78E,200,27.526,,8.21
808,9/7/2019,13:27,35-09.21N,139-44.65E,200,27.539,,8.19
809,9/7/2019,13:28,35-08.93N,139-44.52E,200,27.492,,8.19
810,9/7/2019,13:29,35-08.66N,139-44.40E,200,27.423,,8.19
811,9/7/2019,13:30,35-08.39N,139-44.27E,201,27.375,,8.19
812,9/7/2019,13:31,35-08.12N,139-44.14E,201,27.409,,8.18
813,9/7/2019,13:32,35-07.84N,139-44.02E,199,27.524,,8.19
814,9/7/2019,13:33,35-07.56N,139-43.93E,193,27.505,,8.19
815,9/7/2019,13:34,35-07.28N,139-43.86E,190,27.355,,8.19
816,9/7/2019,13:35,35-07.00N,139-43.80E,189,27.45,,8.19
817,9/7/2019,13:36,35-06.72N,139-43.74E,189,27.584,,8.18
818,9/7/2019,13:37,35-06.42N,139-43.68E,189,27.643,,8.18
819,9/7/2019,13:38,35-06.14N,139-43.62E,189,27.61,,8.18
820,9/7/2019,13:39,35-05.85N,139-43.56E,189,27.485,,8.18
821,9/7/2019,13:40,35-05.56N,139-43.51E,188,27.458,,8.18
822,9/7/2019,13:41,35-05.27N,139-43.45E,188,27.573,,8.19
823,9/7/2019,13:42,35-04.98N,139-43.40E,188,28.006,,8.2
824,9/7/2019,13:43,35-04.70N,139-43.35E,188,28.171,,8.21
825,9/7/2019,13:44,35-04.42N,139-43.31E,184,28.166,,8.19
826,9/7/2019,13:45,35-04.13N,139-43.29E,183,28.148,,8.19
827,9/7/2019,13:46,35-03.84N,139-43.27E,183,28.124,,8.18
828,9/7/2019,13:47,35-03.55N,139-43.25E,183,28.212,,8.18
829,9/7/2019,13:48,35-03.27N,139-43.23E,183,28.46,,8.18
830,9/7/2019,13:49,35-02.98N,139-43.21E,183,28.533,,8.18
831,9/7/2019,13:50,35-02.70N,139-43.19E,183,28.533,,8.18
832,9/7/2019,13:51,35-02.41N,139-43.17E,183,28.546,,8.17
833,9/7/2019,13:52,35-02.12N,139-43.16E,181,28.502,,8.17
834,9/7/2019,13:53,35-01.84N,139-43.16E,180,28.526,,8.17
835,9/7/2019,13:54,35-01.56N,139-43.16E,180,28.53,,8.17
836,9/7/2019,13:55,35-01.27N,139-43.15E,180,28.544,,8.17
837,9/7/2019,13:56,35-00.98N,139-43.15E,179,28.56,,8.17
838,9/7/2019,13:57,35-00.70N,139-43.16E,179,28.544,,8.17
839,9/7/2019,13:58,35-00.42N,139-43.16E,180,28.572,,8.17
840,9/7/2019,13:59,35-00.13N,139-43.15E,180,28.593,,8.17
841,9/7/2019,14:00,34-59.85N,139-43.16E,179,28.602,,8.17
842,9/7/2019,14:01,34-59.57N,139-43.16E,179,28.603,,8.17
843,9/7/2019,14:02,34-59.28N,139-43.16E,179,28.605,,8.17
844,9/7/2019,14:03,34-59.00N,139-43.16E,179,28.578,,8.17
845,9/7/2019,14:04,34-58.72N,139-43.16E,180,28.546,,8.17
846,9/7/2019,14:05,34-58.44N,139-43.15E,180,28.55,,8.17
847,9/7/2019,14:06,34-58.17N,139-43.18E,172,28.53,,8.17
848,9/7/2019,14:07,34-57.90N,139-43.28E,159,28.549,,8.17
849,9/7/2019,14:08,34-57.65N,139-43.44E,148,28.586,,8.17
850,9/7/2019,14:09,34-57.41N,139-43.64E,146,28.603,,8.17
851,9/7/2019,14:10,34-57.17N,139-43.83E,146,28.604,,8.17
852,9/7/2019,14:11,34-56.92N,139-44.02E,147,28.583,,8.17
853,9/7/2019,14:12,34-56.67N,139-44.21E,147,28.574,,8.17
854,9/7/2019,14:13,34-56.42N,139-44.41E,148,28.565,,8.17
855,9/7/2019,14:14,34-56.16N,139-44.60E,148,28.553,,8.17
856,9/7/2019,14:15,34-55.90N,139-44.79E,148,28.536,,8.18
857,9/7/2019,14:16,34-55.65N,139-44.98E,148,28.521,,8.17
858,9/7/2019,14:17,34-55.39N,139-45.17E,148,28.504,,8.17
859,9/7/2019,14:18,34-55.13N,139-45.37E,148,28.489,,8.17
860,9/7/2019,14:19,34-54.87N,139-45.56E,148,28.484,,8.17
861,9/7/2019,14:20,34-54.61N,139-45.76E,148,28.472,,8.17
862,9/7/2019,14:21,34-54.35N,139-45.94E,148,28.474,,8.18
863,9/7/2019,14:22,34-54.09N,139-46.14E,148,28.463,,8.17
864,9/7/2019,14:23,34-53.83N,139-46.33E,148,28.47,,8.18
865,9/7/2019,14:24,34-53.56N,139-46.53E,149,28.458,,8.18
866,9/7/2019,14:25,34-53.29N,139-46.72E,149,28.44,,8.18
867,9/7/2019,14:26,34-53.03N,139-46.91E,148,28.432,,8.18
868,9/7/2019,14:27,34-52.77N,139-47.10E,148,28.426,,8.18
869,9/7/2019,14:28,34-52.51N,139-47.30E,147,28.416,,8.18
870,9/7/2019,14:29,34-52.25N,139-47.49E,147,28.387,,8.18
871,9/7/2019,14:30,34-51.98N,139-47.70E,148,28.344,,8.18
872,9/7/2019,14:31,34-51.75N,139-47.91E,137,28.288,,8.18
873,9/7/2019,14:32,34-51.60N,139-48.21E,118,28.186,,8.18
874,9/7/2019,14:33,34-51.51N,139-48.54E,103,28.164,,8.18
875,9/7/2019,14:34,34-51.46N,139-48.89E,98,28.13,,8.18
876,9/7/2019,14:35,34-51.42N,139-49.27E,97,28.115,,8.18
877,9/7/2019,14:36,34-51.38N,139-49.64E,98,28.038,,8.18
878,9/7/2019,14:37,34-51.33N,139-50.00E,98,28.104,,8.18
879,9/7/2019,14:38,34-51.28N,139-50.39E,99,28.082,,8.18
880,9/7/2019,14:39,34-51.23N,139-50.76E,99,28.088,,8.18
881,9/7/2019,14:40,34-51.20N,139-51.14E,93,27.98,,8.18
882,9/7/2019,14:41,34-51.20N,139-51.52E,90,27.985,,8.18
883,9/7/2019,14:42,34-51.20N,139-51.90E,89,27.994,,8.18
884,9/7/2019,14:43,34-51.20N,139-52.28E,89,28.033,,8.18
885,9/7/2019,14:44,34-51.21N,139-52.68E,88,28.073,,8.18
886,9/7/2019,14:45,34-51.21N,139-53.06E,89,28.144,,8.18
887,9/7/2019,14:46,34-51.22N,139-53.44E,86,28.038,,8.18
888,9/7/2019,14:47,34-51.27N,139-53.82E,78,27.931,,8.18
889,9/7/2019,14:48,34-51.35N,139-54.19E,72,27.873,,8.18
890,9/7/2019,14:49,34-51.46N,139-54.56E,71,27.98,,8.18
891,9/7/2019,14:50,34-51.56N,139-54.93E,71,28.052,,8.18
892,9/7/2019,14:51,34-51.67N,139-55.31E,71,28.071,,8.18
893,9/7/2019,14:52,34-51.77N,139-55.68E,71,28.109,,8.18
894,9/7/2019,14:53,34-51.88N,139-56.05E,70,28.101,,8.18
895,9/7/2019,14:54,34-51.98N,139-56.44E,71,28.051,,8.18
896,9/7/2019,14:55,34-52.09N,139-56.82E,72,27.941,,8.18
897,9/7/2019,14:56,34-52.19N,139-57.19E,71,27.91,,8.18
898,9/7/2019,14:57,34-52.29N,139-57.57E,71,27.901,,8.18
899,9/7/2019,14:58,34-52.40N,139-57.94E,71,27.939,,8.18
900,9/7/2019,14:59,34-52.51N,139-58.32E,70,28.021,,8.18
901,9/7/2019,15:00,34-52.62N,139-58.70E,70,28.045,,8.18
902,9/7/2019,15:01,34-52.73N,139-59.08E,70,27.894,,8.18
903,9/7/2019,15:02,34-52.84N,139-59.45E,71,27.821,,8.18
904,9/7/2019,15:03,34-52.95N,139-59.83E,69,27.727,,8.18
905,9/7/2019,15:04,34-53.05N,140-00.20E,70,27.543,,8.18
906,9/7/2019,15:05,34-53.16N,140-00.57E,70,27.501,,8.18
907,9/7/2019,15:06,34-53.27N,140-00.94E,70,27.293,,8.18
908,9/7/2019,15:07,34-53.38N,140-01.30E,69,27.244,,8.18
909,9/7/2019,15:08,34-53.50N,140-01.67E,68,27.281,,8.18
910,9/7/2019,15:09,34-53.62N,140-02.04E,69,27.284,,8.18
911,9/7/2019,15:10,34-53.73N,140-02.40E,69,27.35,,8.18
912,9/7/2019,15:11,34-53.84N,140-02.77E,69,27.37,,8.18
913,9/7/2019,15:12,34-53.95N,140-03.14E,68,27.36,,8.18
914,9/7/2019,15:13,34-54.07N,140-03.51E,68,27.303,,8.18
915,9/7/2019,15:14,34-54.20N,140-03.89E,68,27.286,,8.18
916,9/7/2019,15:15,34-54.31N,140-04.25E,68,27.267,,8.18
917,9/7/2019,15:16,34-54.43N,140-04.60E,68,27.252,,8.18
918,9/7/2019,15:17,34-54.56N,140-04.96E,64,27.267,,8.18
919,9/7/2019,15:18,34-54.72N,140-05.31E,59,27.247,,8.18
920,9/7/2019,15:19,34-54.89N,140-05.64E,58,27.253,,8.18
921,9/7/2019,15:20,34-55.07N,140-05.99E,57,27.333,,8.18
922,9/7/2019,15:21,34-55.25N,140-06.33E,57,27.67,,8.18
923,9/7/2019,15:22,34-55.43N,140-06.67E,58,27.922,,8.18
924,9/7/2019,15:23,34-55.61N,140-07.01E,58,28.135,,8.18
925,9/7/2019,15:24,34-55.79N,140-07.38E,58,28.212,,8.18
926,9/7/2019,15:25,34-55.96N,140-07.72E,58,28.233,,8.18
927,9/7/2019,15:26,34-56.14N,140-08.07E,58,28.306,,8.18
928,9/7/2019,15:27,34-56.32N,140-08.42E,58,28.377,,8.18
929,9/7/2019,15:28,34-56.50N,140-08.77E,57,28.425,,8.18
930,9/7/2019,15:29,34-56.68N,140-09.12E,58,28.526,,8.18
931,9/7/2019,15:30,34-56.87N,140-09.47E,57,28.571,,8.18
932,9/7/2019,15:31,34-57.05N,140-09.83E,57,28.568,,8.18
933,9/7/2019,15:32,34-57.23N,140-10.17E,57,28.57,,8.18
934,9/7/2019,15:33,34-57.41N,140-10.52E,58,28.573,,8.18
935,9/7/2019,15:34,34-57.59N,140-10.87E,57,28.576,,8.18
936,9/7/2019,15:35,34-57.78N,140-11.21E,57,28.598,,8.18
937,9/7/2019,15:36,34-57.96N,140-11.56E,57,28.589,,8.18
938,9/7/2019,15:37,34-58.14N,140-11.91E,57,28.584,,8.18
939,9/7/2019,15:38,34-58.32N,140-12.25E,57,28.565,,8.18
940,9/7/2019,15:39,34-58.50N,140-12.60E,57,28.526,,8.18
941,9/7/2019,15:40,34-58.68N,140-12.94E,58,28.416,,8.18
942,9/7/2019,15:41,34-58.86N,140-13.29E,58,28.529,,8.18
943,9/7/2019,15:42,34-59.03N,140-13.63E,58,28.596,,8.18
944,9/7/2019,15:43,34-59.21N,140-13.97E,58,28.643,,8.18
945,9/7/2019,15:44,34-59.38N,140-14.32E,58,28.643,,8.18
946,9/7/2019,15:45,34-59.56N,140-14.66E,58,28.632,,8.18
947,9/7/2019,15:46,34-59.73N,140-15.01E,58,28.621,,8.18
948,9/7/2019,15:47,34-59.90N,140-15.35E,58,28.625,,8.18
949,9/7/2019,15:48,35-00.07N,140-15.69E,58,28.647,,8.18
950,9/7/2019,15:49,35-00.25N,140-16.04E,59,28.636,,8.18
951,9/7/2019,15:50,35-00.42N,140-16.38E,58,28.654,,8.18
952,9/7/2019,15:51,35-00.59N,140-16.73E,59,28.646,,8.18
953,9/7/2019,15:52,35-00.76N,140-17.08E,59,28.691,,8.18
954,9/7/2019,15:53,35-00.94N,140-17.44E,59,28.681,,8.18
955,9/7/2019,15:54,35-01.11N,140-17.79E,60,28.607,,8.18
956,9/7/2019,15:55,35-01.28N,140-18.14E,59,28.547,,8.18
957,9/7/2019,15:56,35-01.45N,140-18.50E,59,28.566,,8.18
958,9/7/2019,15:57,35-01.62N,140-18.86E,60,28.628,,8.18
959,9/7/2019,15:58,35-01.79N,140-19.22E,60,28.677,,8.18
960,9/7/2019,15:59,35-01.96N,140-19.58E,60,28.709,,8.18
961,9/7/2019,16:00,35-02.12N,140-19.93E,60,28.729,,8.18
962,9/7/2019,16:01,35-02.29N,140-20.30E,60,28.741,,8.18
963,9/7/2019,16:02,35-02.47N,140-20.66E,60,28.748,,8.18
964,9/7/2019,16:03,35-02.63N,140-21.03E,60,28.737,,8.18
965,9/7/2019,16:04,35-02.80N,140-21.39E,60,28.708,,8.18
966,9/7/2019,16:05,35-02.97N,140-21.75E,59,28.71,,8.18
967,9/7/2019,16:06,35-03.16N,140-22.10E,57,28.717,,8.18
968,9/7/2019,16:07,35-03.35N,140-22.46E,56,28.712,,8.18
969,9/7/2019,16:08,35-03.54N,140-22.81E,56,28.712,,8.18
970,9/7/2019,16:09,35-03.73N,140-23.16E,56,28.712,,8.18
971,9/7/2019,16:10,35-03.93N,140-23.51E,56,28.706,,8.18
972,9/7/2019,16:11,35-04.12N,140-23.87E,56,28.678,,8.18
973,9/7/2019,16:12,35-04.32N,140-24.22E,56,28.646,,8.18
974,9/7/2019,16:13,35-04.51N,140-24.58E,56,28.643,,8.18
975,9/7/2019,16:14,35-04.70N,140-24.92E,56,28.64,,8.18
976,9/7/2019,16:15,35-04.89N,140-25.28E,57,28.658,,8.18
977,9/7/2019,16:16,35-05.08N,140-25.64E,56,28.661,,8.18
978,9/7/2019,16:17,35-05.29N,140-26.02E,56,28.669,,8.18
979,9/7/2019,16:18,35-05.47N,140-26.36E,56,28.672,,8.18
980,9/7/2019,16:19,35-05.67N,140-26.71E,56,28.695,,8.18
981,9/7/2019,16:20,35-05.86N,140-27.07E,56,28.716,,8.18
982,9/7/2019,16:21,35-06.05N,140-27.43E,56,28.726,,8.18
983,9/7/2019,16:22,35-06.25N,140-27.79E,56,28.728,,8.18
984,9/7/2019,16:23,35-06.44N,140-28.16E,56,28.73,,8.18
985,9/7/2019,16:24,35-06.64N,140-28.52E,57,28.734,,8.18
986,9/7/2019,16:25,35-06.83N,140-28.88E,56,28.746,,8.18
987,9/7/2019,16:26,35-07.03N,140-29.24E,57,28.744,,8.18
988,9/7/2019,16:27,35-07.22N,140-29.62E,56,28.769,,8.18
989,9/7/2019,16:28,35-07.41N,140-29.97E,57,28.78,,8.18
990,9/7/2019,16:29,35-07.60N,140-30.33E,56,28.78,,8.18
991,9/7/2019,16:30,35-07.80N,140-30.68E,56,28.812,,8.18
992,9/7/2019,16:31,35-07.99N,140-31.05E,56,28.812,,8.18
993,9/7/2019,16:32,35-08.18N,140-31.41E,57,28.788,,8.18
994,9/7/2019,16:33,35-08.39N,140-31.74E,49,28.791,,8.18
995,9/7/2019,16:34,35-08.64N,140-32.03E,40,28.761,,8.18
996,9/7/2019,16:35,35-08.90N,140-32.30E,40,28.735,,8.18
997,9/7/2019,16:36,35-09.17N,140-32.58E,40,28.656,,8.18
998,9/7/2019,16:37,35-09.44N,140-32.86E,40,28.562,,8.18
999,9/7/2019,16:38,35-09.70N,140-33.13E,40,28.5,,8.18
1000,9/7/2019,16:39,35-09.96N,140-33.41E,40,28.416,,8.18
1001,9/7/2019,16:40,35-10.23N,140-33.68E,40,28.237,,8.18
1002,9/7/2019,16:41,35-10.49N,140-33.96E,39,28.045,,8.18
1003,9/7/2019,16:42,35-10.75N,140-34.22E,39,27.678,,8.18
1004,9/7/2019,16:43,35-11.01N,140-34.48E,40,27.652,,8.18
1005,9/7/2019,16:44,35-11.26N,140-34.74E,39,27.669,,8.18
1006,9/7/2019,16:45,35-11.50N,140-34.99E,39,27.721,,8.18
1007,9/7/2019,16:46,35-11.76N,140-35.24E,39,27.784,,8.18
1008,9/7/2019,16:47,35-12.01N,140-35.50E,39,27.864,,8.18
1009,9/7/2019,16:48,35-12.26N,140-35.76E,40,27.922,,8.18
1010,9/7/2019,16:49,35-12.52N,140-36.02E,39,27.936,,8.18
1011,9/7/2019,16:50,35-12.78N,140-36.28E,39,27.954,,8.18
1012,9/7/2019,16:51,35-13.03N,140-36.53E,39,27.967,,8.18
1013,9/7/2019,16:52,35-13.29N,140-36.79E,39,27.993,,8.18
1014,9/7/2019,16:53,35-13.55N,140-37.05E,39,28.004,,8.18
1015,9/7/2019,16:54,35-13.81N,140-37.31E,39,28.015,,8.18
1016,9/7/2019,16:55,35-14.07N,140-37.57E,38,28.039,,8.18
1017,9/7/2019,16:56,35-14.33N,140-37.82E,38,28.048,,8.18
1018,9/7/2019,16:57,35-14.59N,140-38.08E,38,28.053,,8.18
1019,9/7/2019,16:58,35-14.86N,140-38.33E,37,28.076,,8.18
1020,9/7/2019,16:59,35-15.14N,140-38.58E,36,28.1,,8.18
1021,9/7/2019,17:00,35-15.40N,140-38.82E,36,28.081,,8.18
1022,9/7/2019,17:01,35-15.68N,140-39.06E,35,28.06,,8.18
1023,9/7/2019,17:02,35-15.94N,140-39.30E,35,28.03,,8.18
1024,9/7/2019,17:03,35-16.21N,140-39.54E,35,28.04,,8.18
1025,9/7/2019,17:04,35-16.48N,140-39.78E,36,28.047,,8.18
1026,9/7/2019,17:05,35-16.75N,140-40.02E,36,28.029,,8.18
1027,9/7/2019,17:06,35-17.03N,140-40.27E,36,27.968,,8.18
1028,9/7/2019,17:07,35-17.29N,140-40.50E,36,27.934,,8.18
1029,9/7/2019,17:08,35-17.55N,140-40.74E,36,27.917,,8.18
1030,9/7/2019,17:09,35-17.82N,140-40.97E,36,27.905,,8.18
1031,9/7/2019,17:10,35-18.08N,140-41.21E,35,27.91,,8.18
1032,9/7/2019,17:11,35-18.35N,140-41.44E,36,27.918,,8.18
1033,9/7/2019,17:12,35-18.62N,140-41.68E,36,27.939,,8.18
1034,9/7/2019,17:13,35-18.89N,140-41.92E,36,27.951,,8.18
1035,9/7/2019,17:14,35-19.16N,140-42.16E,35,27.934,,8.18
1036,9/7/2019,17:15,35-19.43N,140-42.40E,35,27.88,,8.18
1037,9/7/2019,17:16,35-19.70N,140-42.64E,36,27.778,,8.18
1038,9/7/2019,17:17,35-19.96N,140-42.87E,36,27.646,,8.18
1039,9/7/2019,17:18,35-20.23N,140-43.11E,36,27.317,,8.18
1040,9/7/2019,17:19,35-20.49N,140-43.34E,35,27.076,,8.18
1041,9/7/2019,17:20,35-20.76N,140-43.57E,36,27.047,,8.18
1042,9/7/2019,17:21,35-21.02N,140-43.81E,36,26.976,,8.18
1043,9/7/2019,17:22,35-21.29N,140-44.05E,35,26.681,,8.18
1044,9/7/2019,17:23,35-21.54N,140-44.27E,35,26.705,,8.18
1045,9/7/2019,17:24,35-21.81N,140-44.50E,35,26.726,,8.18
1046,9/7/2019,17:25,35-22.07N,140-44.74E,36,26.774,,8.18
1047,9/7/2019,17:26,35-22.33N,140-44.97E,36,26.638,,8.18
1048,9/7/2019,17:27,35-22.60N,140-45.20E,35,26.496,,8.18
1049,9/7/2019,17:28,35-22.86N,140-45.44E,35,26.422,,8.18
1050,9/7/2019,17:29,35-23.13N,140-45.67E,35,26.305,,8.18
1051,9/7/2019,17:30,35-23.39N,140-45.90E,35,26.211,,8.18
1052,9/7/2019,17:31,35-23.65N,140-46.12E,35,25.136,,8.18
1053,9/7/2019,17:32,35-23.91N,140-46.35E,35,25.009,,8.19
1054,9/7/2019,17:33,35-24.17N,140-46.57E,36,25.566,,8.19
1055,9/7/2019,17:34,35-24.42N,140-46.79E,35,25.633,,8.19
1056,9/7/2019,17:35,35-24.67N,140-47.00E,33,26.229,,8.19
1057,9/7/2019,17:36,35-24.93N,140-47.22E,33,26.511,,8.2
1058,9/7/2019,17:37,35-25.18N,140-47.42E,34,26.737,,8.19
1059,9/7/2019,17:38,35-25.43N,140-47.63E,34,26.847,,8.19
1060,9/7/2019,17:39,35-25.68N,140-47.84E,34,26.877,,8.19
1061,9/7/2019,17:40,35-25.93N,140-48.05E,33,26.802,,8.19
1062,9/7/2019,17:41,35-26.19N,140-48.26E,34,26.932,,8.19
1063,9/7/2019,17:42,35-26.44N,140-48.47E,34,27.154,,8.19
1064,9/7/2019,17:43,35-26.69N,140-48.67E,34,27.4,,8.19
1065,9/7/2019,17:44,35-26.93N,140-48.88E,34,27.463,,8.19
1066,9/7/2019,17:45,35-27.18N,140-49.09E,34,27.42,,8.19
1067,9/7/2019,17:46,35-27.44N,140-49.30E,34,27.505,,8.19
1068,9/7/2019,17:47,35-27.68N,140-49.50E,34,27.537,,8.18
1069,9/7/2019,17:48,35-27.93N,140-49.70E,32,27.592,,8.19
1070,9/7/2019,17:49,35-28.18N,140-49.90E,32,27.559,,8.18
1071,9/7/2019,17:50,35-28.43N,140-50.10E,32,27.509,,8.18
1072,9/7/2019,17:51,35-28.69N,140-50.29E,32,27.356,,8.18
1073,9/7/2019,17:52,35-28.94N,140-50.48E,32,27.296,,8.18
1074,9/7/2019,17:53,35-29.19N,140-50.67E,31,27.279,,8.18
1075,9/7/2019,17:54,35-29.43N,140-50.85E,31,27.271,,8.18
1076,9/7/2019,17:55,35-29.68N,140-51.04E,31,27.235,,8.19
1077,9/7/2019,17:56,35-29.93N,140-51.23E,31,27.232,,8.19
1078,9/7/2019,17:57,35-30.19N,140-51.42E,31,27.186,,8.19
1079,9/7/2019,17:58,35-30.43N,140-51.60E,31,27.197,,8.19
1080,9/7/2019,17:59,35-30.68N,140-51.79E,31,27.219,,8.19
1081,9/7/2019,18:00,35-30.93N,140-51.98E,31,27.303,,8.18
1082,9/7/2019,18:01,35-31.18N,140-52.18E,32,27.295,,8.19
1083,9/7/2019,18:02,35-31.43N,140-52.36E,31,27.217,,8.18
1084,9/7/2019,18:03,35-31.67N,140-52.55E,31,27.155,,8.19
1085,9/7/2019,18:04,35-31.92N,140-52.73E,31,27.233,,8.18
1086,9/7/2019,18:05,35-32.17N,140-52.92E,31,27.329,,8.19
1087,9/7/2019,18:06,35-32.42N,140-53.11E,32,27.366,,8.18
1088,9/7/2019,18:07,35-32.67N,140-53.30E,31,27.362,,8.19
1089,9/7/2019,18:08,35-32.91N,140-53.49E,32,27.32,,8.19
1090,9/7/2019,18:09,35-33.16N,140-53.67E,31,27.28,,8.18
1091,9/7/2019,18:10,35-33.41N,140-53.86E,30,27.253,,8.19
1092,9/7/2019,18:11,35-33.66N,140-54.05E,31,27.254,,8.19
1093,9/7/2019,18:12,35-33.91N,140-54.24E,31,27.221,,8.19
1094,9/7/2019,18:13,35-34.15N,140-54.42E,31,27.099,,8.19
1095,9/7/2019,18:14,35-34.40N,140-54.61E,31,26.98,,8.19
1096,9/7/2019,18:15,35-34.65N,140-54.80E,31,27.037,,8.19
1097,9/7/2019,18:16,35-34.90N,140-54.99E,31,27.239,,8.19
1098,9/7/2019,18:17,35-35.16N,140-55.18E,31,27.193,,8.19
1099,9/7/2019,18:18,35-35.41N,140-55.36E,31,26.879,,8.19